[[{"header":{"parameterUnit":"m.s-1","parameterCategory":1,"la1":30.2991,"la2":30.254,"lo1":-89.0895,"lo2":-89.0444,"dy":0.0017,"dx":0.0017,"nx":28,"ny":28,"refTime":"2023-09-22T03:00:00:Z","depth":0,"parameterNumber":2,"parameterNumberName":"U-component_of_WINDS"},"data":[0,0,0,0,0,0,0,0,0,0,0,0,0,0,0,0,0,0,0,0,0,0,0,0,0,0,0,0,0,0,0,0,0,0,0,0,0,0,0,0,0,0,0,0,0,0,0,0,0,0,0,0,0,0,0,0,0,0,-0.7092,-0.7091,0,-0.6986,-0.6985,-0.6983,-0.6927,-0.6927,-0.6927,-0.6927,-0.6813,-0.681,-0.6808,0,0,0,0,0,0,0,0,0,0,0,0,0,-0.7244,-0.7241,-0.7092,-0.7091,-0.709,-0.6986,-0.6985,-0.6983,-0.6927,-0.6927,-0.6927,-0.6927,-0.6814,-0.6811,-0.6807,0,0,0,0,0,0,0,0,0,0,0,0,0,-0.7162,-0.724,-0.7093,-0.705,-0.7045,-0.6986,-0.6985,-0.6983,-0.6927,-0.6927,-0.6927,-0.6927,-0.6815,-0.6811,-0.6807,-0.6782,0,0,-0.6793,-0.6791,0,0,0,0,0,0,0,0,-0.7166,-0.7156,-0.7057,-0.7052,-0.7047,-0.697,-0.6996,-0.6915,-0.6927,-0.6972,-0.6927,-0.6927,-0.6865,-0.6857,-0.6837,-0.6777,-0.6772,-0.6793,-0.679,-0.6788,-0.6787,0,0,0,0,0,0,0,-0.7172,-0.716,-0.705,-0.7056,-0.7049,-0.7034,-0.7022,-0.6981,-0.692,-0.6968,-0.6963,-0.6952,-0.6862,-0.6841,-0.6834,-0.677,-0.6793,-0.6789,-0.6786,-0.6785,-0.6685,-0.6685,0,0,0,0,0,0,-0.7185,-0.7166,-0.7053,-0.7047,-0.7108,-0.7032,-0.7018,-0.6995,-0.6921,-0.6909,-0.6952,-0.695,-0.6849,-0.6839,-0.6829,-0.6796,-0.6788,-0.6784,-0.6782,-0.6685,-0.6685,-0.6685,0,0,0,0,0,0,-0.7189,-0.7176,-0.7058,-0.7105,-0.7089,-0.7029,-0.7003,-0.6993,-0.6971,-0.6909,-0.6897,-0.6942,-0.6848,-0.6836,-0.6795,-0.6791,-0.6782,-0.6778,-0.6685,-0.6685,-0.6685,-0.6728,0,0,0,0,0,0,-0.7193,-0.7178,-0.7168,-0.7105,-0.7087,-0.7026,-0.7003,-0.6991,-0.6965,-0.696,-0.6896,-0.6885,-0.6847,-0.6802,-0.679,-0.6785,-0.6775,-0.6685,-0.6685,-0.6685,-0.6727,-0.673,-0.6732,0,0,0,0,0,-0.7199,-0.7184,-0.7168,-0.7155,-0.7074,-0.7026,-0.7015,-0.6973,-0.6965,-0.6954,-0.6914,-0.6887,-0.6794,-0.6798,-0.6785,-0.6778,-0.6685,-0.6685,-0.6685,-0.6726,-0.6729,-0.6732,0,0,0,0,0,0,-0.7246,-0.7174,-0.7156,-0.7121,-0.708,-0.7017,-0.7002,-0.6978,-0.6937,-0.6935,-0.6883,-0.6869,-0.6833,-0.6801,-0.6807,-0.675,-0.6736,-0.6734,-0.6772,-0.6775,-0.6778,-0.6786,-0.6771,0,0,0,0,0,-0.7252,-0.722,-0.7159,-0.7133,-0.7114,-0.7062,-0.7039,-0.7011,-0.6966,-0.6948,-0.6905,-0.6861,-0.6822,-0.6797,-0.6757,-0.6723,-0.6708,-0.6711,-0.6714,-0.6717,-0.6715,-0.6695,-0.6696,-0.6685,-0.6685,-0.6685,0,0,-0.7264,-0.7222,-0.7204,-0.7142,-0.7107,-0.7074,-0.7048,-0.7014,-0.6989,-0.6942,-0.6901,-0.6868,-0.6816,-0.6779,-0.676,-0.6751,-0.6715,-0.6717,-0.6719,-0.6716,-0.6695,-0.6696,-0.6697,-0.6685,-0.6685,-0.6685,0,0,-0.727,-0.7235,-0.721,-0.7176,-0.7124,-0.709,-0.7084,-0.7024,-0.7001,-0.696,-0.6925,-0.6893,-0.6827,-0.6791,-0.6764,-0.6759,-0.6733,-0.6747,-0.6761,-0.6742,-0.6743,-0.6743,-0.6741,-0.6741,-0.6746,-0.6746,-0.6746,0,-0.7291,-0.7242,-0.7199,-0.7168,-0.7141,-0.71,-0.7074,-0.7042,-0.698,-0.6962,-0.6954,-0.687,-0.6832,-0.6786,-0.6785,-0.6764,-0.6755,-0.6754,-0.6746,-0.6746,-0.6746,-0.6743,-0.6743,-0.6748,-0.6747,-0.6747,-0.6747,0,-0.7271,-0.7237,-0.7222,-0.7165,-0.7137,-0.7108,-0.7061,-0.7037,-0.7011,-0.6978,-0.6936,-0.6889,-0.684,-0.6827,-0.68,-0.6777,-0.6773,-0.6757,-0.6741,-0.675,-0.6747,-0.6745,-0.6751,-0.675,-0.6749,-0.6749,0,0,-0.7301,-0.7222,-0.7218,-0.7192,-0.7132,-0.7105,-0.7074,-0.7028,-0.7008,-0.6967,-0.6939,-0.6885,-0.6869,-0.6839,-0.6808,-0.6792,-0.6791,-0.6777,-0.6775,-0.6781,-0.6762,-0.6775,-0.6775,-0.6774,-0.6773,-0.6773,-0.6766,0,-0.7298,-0.7243,-0.7204,-0.7164,-0.7132,-0.7093,-0.7066,-0.7026,-0.6994,-0.6962,-0.6926,-0.6888,-0.6871,-0.6852,-0.6834,-0.6795,-0.6786,-0.6795,-0.6747,-0.6745,-0.6761,-0.6773,-0.6786,-0.6782,-0.6765,-0.6765,-0.6764,0,-0.7287,-0.7249,-0.7206,-0.7151,-0.7136,-0.7113,-0.7067,-0.7037,-0.6991,-0.6969,-0.6937,-0.6906,-0.6871,-0.686,-0.6811,-0.6818,-0.6796,-0.6774,-0.6773,-0.6766,-0.6755,-0.6766,-0.678,-0.6779,-0.6762,-0.6762,-0.6762,0,-0.7313,-0.7251,-0.7217,-0.7196,-0.7131,-0.7116,-0.7088,-0.7042,-0.7017,-0.6977,-0.696,-0.6916,-0.6892,-0.6858,-0.6816,-0.6812,-0.6772,-0.6757,-0.6752,-0.6753,-0.6744,-0.6745,-0.6754,-0.6731,-0.6731,-0.6731,-0.6731,0,-0.7314,-0.7289,-0.7229,-0.7208,-0.7179,-0.7135,-0.7106,-0.7075,-0.7035,-0.7006,-0.697,-0.6944,-0.689,-0.6857,-0.6824,-0.6789,-0.6778,-0.6758,-0.675,-0.6761,-0.6764,-0.6746,-0.6745,-0.6731,-0.6731,-0.6731,-0.6731,0,-0.7338,-0.7297,-0.7258,-0.72,-0.7185,-0.7166,-0.7116,-0.7094,-0.7061,-0.7026,-0.7015,-0.6962,-0.6922,-0.6877,-0.6821,-0.6799,-0.6766,-0.6754,-0.6782,-0.6777,-0.6774,-0.6775,-0.6771,-0.6769,-0.6748,-0.6749,-0.6749,0,-0.7341,-0.7321,-0.7262,-0.7241,-0.7215,-0.7182,-0.7156,-0.7112,-0.7087,-0.7034,-0.7019,-0.6976,-0.694,-0.6877,-0.6833,-0.679,-0.6776,-0.6778,-0.677,-0.6782,-0.6776,-0.6778,-0.6775,-0.678,-0.6781,-0.6781,-0.6782,0,-0.735,-0.7331,-0.7297,-0.7255,-0.7227,-0.7192,-0.7155,-0.714,-0.7088,-0.7062,-0.7021,-0.6993,-0.6938,-0.6896,-0.6848,-0.6818,-0.6791,-0.6785,-0.6781,-0.6793,-0.681,-0.6801,-0.6788,-0.6785,-0.6785,-0.6784,-0.6784,-0.6784,-0.7363,-0.7344,-0.73,-0.7263,-0.7231,-0.7198,-0.7175,-0.714,-0.7106,-0.7058,-0.7034,-0.6994,-0.6949,-0.6882,-0.6853,-0.682,-0.6812,-0.6806,-0.6805,-0.6804,-0.6808,-0.6816,-0.6811,-0.6811,-0.6811,-0.6811,-0.6811,0,-0.737,-0.734,-0.7307,-0.7258,-0.7229,-0.7208,-0.7167,-0.7144,-0.7109,-0.7071,-0.7036,-0.699,-0.6949,-0.6903,-0.6859,-0.6842,-0.6829,-0.6832,-0.6832,-0.6826,-0.6818,-0.6825,-0.6844,-0.6844,-0.6844,-0.6844,-0.6844,-0.6844,-0.737,-0.7337,-0.7313,-0.7263,-0.7233,-0.7195,-0.7173,-0.7142,-0.7111,-0.7062,-0.7029,-0.6999,-0.6957,-0.6911,-0.6873,-0.686,-0.6845,-0.6853,-0.6836,-0.6829,-0.6826,-0.6824,-0.6831,-0.685,-0.685,-0.6847,-0.6847,-0.6847]},{"header":{"parameterUnit":"m.s-1","parameterCategory":1,"la1":30.2991,"la2":30.254,"lo1":-89.0895,"lo2":-89.0444,"dy":0.0017,"dx":0.0017,"nx":28,"ny":28,"refTime":"2023-09-22T03:00:00:Z","depth":0,"parameterNumber":3,"parameterNumberName":"V-component_of_WINDS"},"data":[0,0,0,0,0,0,0,0,0,0,0,0,0,0,0,0,0,0,0,0,0,0,0,0,0,0,0,0,0,0,0,0,0,0,0,0,0,0,0,0,0,0,0,0,0,0,0,0,0,0,0,0,0,0,0,0,0,0,2.03,2.03,0,2.0307,2.0307,2.0307,2.0299,2.0298,2.0298,2.0298,2.0301,2.0302,2.0302,0,0,0,0,0,0,0,0,0,0,0,0,0,2.0272,2.0273,2.03,2.03,2.03,2.0307,2.0307,2.0307,2.0299,2.0298,2.0298,2.0298,2.0301,2.0302,2.0302,0,0,0,0,0,0,0,0,0,0,0,0,0,2.0282,2.0273,2.03,2.0297,2.0297,2.0307,2.0307,2.0307,2.0299,2.0298,2.0298,2.0298,2.0301,2.0301,2.0302,2.0315,0,0,2.0304,2.0304,0,0,0,0,0,0,0,0,2.0282,2.0283,2.0297,2.0297,2.0297,2.0302,2.0299,2.031,2.0299,2.0298,2.0298,2.0297,2.0301,2.0302,2.0304,2.0315,2.0315,2.0304,2.0304,2.0304,2.0305,0,0,0,0,0,0,0,2.0281,2.0283,2.0303,2.0298,2.0297,2.0293,2.0294,2.0301,2.0302,2.0298,2.0297,2.0299,2.0301,2.0304,2.0304,2.0315,2.0304,2.0304,2.0305,2.0305,2.033,2.033,0,0,0,0,0,0,2.0281,2.0282,2.0303,2.0303,2.0288,2.0294,2.0295,2.0301,2.0302,2.0302,2.0299,2.0298,2.0303,2.0304,2.0304,2.0315,2.0304,2.0305,2.0305,2.0329,2.033,2.033,0,0,0,0,0,0,2.0281,2.0283,2.0302,2.0292,2.0295,2.0295,2.0301,2.0301,2.0303,2.0303,2.0302,2.0302,2.0303,2.0303,2.0311,2.0316,2.0305,2.0306,2.0329,2.0329,2.033,2.034,0,0,0,0,0,0,2.028,2.0283,2.029,2.0293,2.0295,2.0311,2.0302,2.0301,2.0305,2.0304,2.0305,2.0305,2.0302,2.031,2.0311,2.0316,2.0306,2.0329,2.0329,2.033,2.0339,2.0341,2.0342,0,0,0,0,0,2.0279,2.0293,2.0291,2.0293,2.0304,2.0312,2.0313,2.0311,2.0305,2.0311,2.0309,2.0305,2.0315,2.0311,2.0312,2.0317,2.0328,2.0329,2.033,2.0339,2.0341,2.0342,0,0,0,0,0,0,2.0291,2.0294,2.0291,2.0307,2.0309,2.031,2.0318,2.0314,2.0317,2.0316,2.0311,2.0312,2.0319,2.0319,2.0315,2.0326,2.032,2.0321,2.0327,2.0328,2.033,2.0329,2.0307,0,0,0,0,0,2.0296,2.0304,2.0305,2.0318,2.0319,2.0318,2.0321,2.0319,2.0321,2.0322,2.0321,2.0322,2.0324,2.0326,2.0329,2.0339,2.0337,2.0342,2.0344,2.0345,2.0346,2.0346,2.0348,2.0333,2.0333,2.0333,0,0,2.0305,2.0307,2.0313,2.032,2.0322,2.0327,2.0319,2.0326,2.0329,2.0322,2.0329,2.0328,2.0328,2.0335,2.0339,2.0335,2.0349,2.0346,2.0347,2.0347,2.0347,2.0349,2.035,2.0333,2.0333,2.0333,0,0,2.0325,2.0329,2.0338,2.0339,2.0341,2.034,2.0341,2.0342,2.0341,2.0348,2.0341,2.0343,2.035,2.0348,2.0349,2.0362,2.0356,2.0362,2.037,2.037,2.0372,2.0373,2.0374,2.0375,2.0363,2.0363,2.0363,0,2.0336,2.0346,2.0344,2.035,2.0351,2.0345,2.0352,2.0353,2.0355,2.0355,2.0352,2.0356,2.0356,2.0361,2.0363,2.0365,2.0364,2.0363,2.0372,2.0373,2.0374,2.0375,2.0376,2.0364,2.0364,2.0364,2.0364,0,2.0357,2.0364,2.0371,2.0373,2.0375,2.0382,2.0378,2.038,2.0376,2.0373,2.0377,2.0376,2.0376,2.0377,2.0374,2.038,2.0377,2.0373,2.0367,2.0376,2.0377,2.0378,2.0365,2.0364,2.0364,2.0364,0,0,2.0388,2.0385,2.0387,2.0386,2.0386,2.0389,2.0393,2.0394,2.0394,2.0395,2.0396,2.0399,2.0393,2.0393,2.0389,2.039,2.0396,2.0385,2.0384,2.0385,2.0398,2.0401,2.0402,2.0392,2.0392,2.0392,2.0397,0,2.0404,2.0414,2.0409,2.0418,2.0421,2.0412,2.0415,2.0413,2.041,2.041,2.0405,2.0406,2.0401,2.04,2.04,2.0395,2.0398,2.0395,2.0391,2.0391,2.039,2.0403,2.0407,2.0412,2.0398,2.0398,2.0398,0,2.0427,2.0427,2.0436,2.043,2.0431,2.0435,2.0432,2.0434,2.0429,2.0426,2.0424,2.0418,2.0419,2.0412,2.0411,2.0408,2.0406,2.0402,2.0402,2.0402,2.0395,2.04,2.0414,2.0414,2.04,2.04,2.0399,0,2.0444,2.0447,2.0451,2.045,2.0445,2.0447,2.0444,2.044,2.0439,2.0436,2.0434,2.0432,2.043,2.0426,2.0418,2.0415,2.0416,2.041,2.0411,2.0411,2.0412,2.0412,2.0424,2.0413,2.0413,2.0412,2.0412,0,2.0462,2.0467,2.0458,2.0461,2.0464,2.0457,2.046,2.0456,2.0452,2.0451,2.0443,2.0442,2.0433,2.043,2.0423,2.0421,2.0421,2.0416,2.0414,2.0416,2.0417,2.0414,2.0413,2.0413,2.0413,2.0413,2.0413,0,2.0483,2.0477,2.048,2.0474,2.0472,2.0475,2.0468,2.0468,2.0463,2.0462,2.0461,2.0452,2.0448,2.044,2.0433,2.0429,2.0427,2.0425,2.0429,2.0427,2.0428,2.0428,2.0438,2.0438,2.0428,2.0428,2.0428,0,2.0494,2.0498,2.049,2.049,2.0487,2.0487,2.0485,2.0476,2.0475,2.0468,2.0468,2.0463,2.0459,2.0452,2.0443,2.0437,2.0434,2.0437,2.0433,2.0433,2.0431,2.0431,2.0429,2.0439,2.0439,2.0439,2.0439,0,2.0514,2.051,2.0509,2.0505,2.0503,2.05,2.0496,2.0495,2.0485,2.0483,2.0479,2.0475,2.0467,2.0461,2.0453,2.0448,2.0441,2.044,2.044,2.0442,2.0443,2.044,2.043,2.044,2.044,2.044,2.044,2.044,2.0529,2.053,2.0524,2.0521,2.0517,2.0513,2.0512,2.0505,2.0502,2.0495,2.049,2.0485,2.0476,2.0465,2.0459,2.0454,2.0451,2.0451,2.045,2.045,2.045,2.0445,2.0452,2.0452,2.0452,2.0452,2.0452,0,2.0546,2.0541,2.0539,2.0533,2.053,2.0524,2.0518,2.0515,2.0511,2.0504,2.0499,2.0492,2.0485,2.0475,2.0467,2.0464,2.046,2.0462,2.0462,2.046,2.0455,2.0455,2.0465,2.0465,2.0465,2.0465,2.0465,2.0465,2.0555,2.0555,2.055,2.0546,2.054,2.0536,2.0533,2.0527,2.0521,2.0514,2.0508,2.0502,2.0492,2.0483,2.0475,2.0472,2.0468,2.0471,2.0466,2.0462,2.0461,2.0459,2.046,2.0471,2.0471,2.0472,2.0472,2.0472]}]]